Theta_e
279 279 278 279 280 279 279 278 276 271 273 275 275 279 279 279 279 278 278 281 284 285 286 287 287 289 290 291 292 293 295 295 296 296 297 298 299 300
279 278 278 278 278 278 279 278 277 273 271 274 276 276 277 278 279 278 278 280 281 283 284 285 287 288 289 290 291 292 293 294 294 295 295 296 297 298
278 278 277 278 277 277 277 277 276 275 271 273 275 275 275 275 276 277 278 277 278 281 284 285 286 287 288 288 289 290 291 291 292 293 293 294 295 296
277 277 276 277 276 276 276 275 275 275 273 271 273 273 274 275 275 275 276 278 278 280 283 285 286 286 286 287 287 288 288 289 289 290 291 291 292 293
277 277 276 276 275 274 274 273 273 275 273 271 271 273 274 275 275 276 276 277 278 281 282 283 283 284 285 285 286 286 286 286 287 287 288 289 290 291
277 276 276 275 275 274 273 273 273 272 272 271 271 272 273 275 275 274 274 275 276 278 279 280 281 282 283 284 284 283 283 284 285 286 286 287 288 288
276 276 275 275 278 276 274 273 273 272 272 271 271 272 273 274 273 275 273 273 274 276 276 277 278 278 279 281 281 282 283 284 285 285 285 286 287 287
274 274 274 274 277 279 279 278 276 271 268 269 271 272 273 274 274 273 273 272 271 275 275 274 276 275 276 277 280 282 283 284 285 285 286 286 287 287
275 274 274 274 274 276 280 280 280 280 277 273 269 273 273 274 274 274 274 274 273 275 273 270 273 272 275 276 280 281 282 282 283 284 285 285 286 286
275 275 274 274 274 275 276 277 277 277 277 277 275 275 274 276 276 276 275 272 272 272 273 268 273 271 273 274 278 280 281 281 282 283 284 285 285 287
275 275 275 275 277 279 275 273 274 275 278 279 280 280 281 280 279 272 265 263 266 269 272 270 271 271 272 272 274 278 279 280 281 282 283 284 285 286
275 276 277 276 279 280 274 273 272 273 274 273 275 275 276 274 276 273 269 261 265 264 273 270 270 270 268 272 274 274 274 276 278 279 279 280 282 282
274 274 275 279 279 280 280 274 273 275 275 272 270 270 270 270 271 272 272 270 267 266 271 272 269 269 268 268 271 272 273 273 274 274 277 279 281 282
274 275 275 279 280 280 280 278 279 277 268 266 266 267 268 268 270 271 271 272 272 271 272 272 269 269 267 266 267 271 272 273 273 273 274 276 279 281
275 276 277 280 280 280 280 279 274 270 267 264 265 266 268 269 270 270 270 270 270 271 272 272 270 270 269 268 268 269 270 271 272 271 271 272 273 275
277 277 277 278 279 274 274 275 271 269 268 266 266 267 268 268 267 268 266 267 266 266 270 271 271 271 269 270 270 268 270 267 270 270 271 271 272 273
275 275 274 272 270 269 268 268 268 267 266 267 266 266 266 266 266 267 266 265 263 263 265 268 271 272 271 270 267 268 268 268 269 270 270 268 270 271
272 271 269 268 267 267 266 266 266 266 266 265 265 265 264 264 264 265 265 263 262 264 264 266 267 267 267 269 272 268 268 268 269 269 270 268 268 271
270 268 267 267 266 266 266 265 265 265 265 264 264 263 263 263 262 262 263 263 263 263 264 266 265 264 262 261 267 273 268 268 268 268 268 268 267 269
269 267 266 266 265 265 264 264 263 263 262 262 262 261 261 260 260 260 261 261 262 262 263 264 264 264 264 263 263 267 272 269 268 267 267 269 270 273
267 266 265 264 263 263 262 261 260 259 259 259 258 258 259 258 258 260 261 262 262 263 261 262 265 267 267 267 264 264 268 272 271 268 268 267 266 267
265 262 262 262 261 260 259 258 257 256 257 257 256 256 257 258 259 259 260 261 262 263 262 264 265 265 264 263 262 264 265 268 270 271 271 270 267 264
262 261 260 259 258 257 256 255 255 257 256 255 254 255 257 257 259 260 260 261 263 262 261 261 262 263 263 263 263 263 264 265 265 265 266 270 271 272
Wind_Speed
7 7 4 3 4 4 4 3 4 3 3 3 3 3 3 2 2 3 4 11 16 18 17 18 18 19 20 21 22 22 23 24 25 25 26 26 27 26
6 9 6 5 5 4 5 4 3 3 3 2 1 3 1 2 6 6 6 14 16 17 18 19 20 20 21 22 23 24 25 26 26 27 26 27 28 27
9 11 10 8 6 6 5 4 4 4 4 2 2 3 5 7 8 8 8 8 7 16 19 20 20 22 23 23 25 26 26 26 27 29 28 28 29 29
14 12 11 8 9 7 6 7 6 6 4 5 3 3 6 6 8 9 8 7 8 15 21 23 24 24 25 25 27 28 28 29 30 31 30 30 31 31
16 15 14 13 10 8 7 7 6 6 6 4 4 5 5 6 8 8 6 6 5 13 19 22 23 23 24 25 28 29 30 31 32 32 32 32 32 32
15 14 14 15 14 13 10 10 8 7 7 6 5 6 6 6 4 3 5 2 6 7 13 14 18 21 23 25 27 28 29 30 31 32 33 33 33 33
14 14 13 14 20 16 10 10 10 7 6 6 6 3 3 2 2 4 6 7 8 7 5 5 8 10 10 18 21 25 27 30 32 33 34 34 35 34
16 13 12 14 17 22 22 21 16 11 8 5 4 4 5 3 2 4 7 7 5 4 9 10 10 10 11 10 21 28 31 33 34 36 36 36 37 37
17 16 13 11 14 13 21 21 21 21 14 9 6 5 5 3 5 6 7 8 9 10 13 11 8 11 11 11 24 29 31 32 34 35 37 37 38 37
17 18 17 17 17 14 11 12 11 9 7 4 3 4 5 7 8 6 7 5 7 8 7 10 8 12 12 10 28 32 32 33 35 36 37 38 40 38
14 14 15 15 23 25 14 12 10 9 11 15 13 14 13 13 10 1 2 2 5 3 4 8 5 13 13 14 13 25 29 30 28 31 35 38 39 38
12 12 19 15 25 25 12 11 10 10 9 5 2 5 6 6 13 5 2 3 3 4 2 4 9 8 10 5 8 12 14 24 32 34 36 40 42 19
11 11 10 23 24 24 22 11 10 7 9 4 3 2 4 5 4 4 5 5 5 9 9 8 8 12 9 17 14 13 14 15 15 17 29 36 37 33
13 11 12 25 24 24 19 16 16 9 4 3 1 2 3 4 4 5 7 8 8 15 13 12 11 13 15 17 20 17 14 15 15 15 14 24 35 37
9 15 21 25 24 19 19 17 8 5 4 3 3 3 3 4 7 7 8 10 12 14 13 14 13 16 14 18 20 21 21 17 15 16 14 15 17 17
20 14 17 19 17 11 7 8 4 5 5 4 4 3 3 4 4 5 6 7 9 10 10 14 15 17 17 15 16 23 18 18 17 15 16 16 16 17
15 11 10 9 9 8 6 6 6 6 5 4 3 2 3 4 5 5 6 7 9 11 12 9 13 16 17 20 20 18 21 20 17 18 17 18 17 17
13 12 10 10 10 9 8 7 5 6 4 3 2 2 3 4 5 6 6 7 9 11 12 12 12 14 14 17 23 21 18 19 18 18 17 18 19 15
10 12 10 9 9 9 9 7 6 5 4 3 2 2 3 4 6 6 7 8 9 12 11 11 12 12 17 20 16 21 19 17 18 18 16 17 20 17
10 12 11 10 9 9 8 7 6 6 4 2 2 2 3 3 6 7 7 9 10 13 14 11 11 12 14 19 24 22 28 21 17 20 18 17 21 35
11 10 9 8 8 7 7 6 6 5 4 3 1 2 2 3 6 8 9 12 14 12 16 15 13 21 16 17 19 21 16 28 30 22 20 19 19 18
9 9 9 8 7 6 6 5 5 5 4 3 2 2 3 5 7 8 9 10 11 12 15 15 15 13 13 15 21 27 22 18 22 32 37 36 20 23
8 9 8 8 6 5 6 5 4 4 4 3 3 3 4 6 6 7 9 10 12 13 14 17 14 13 15 16 22 21 30 26 19 18 17 30 37 42
Wind_Direction
182 171 161 170 165 152 145 146 149 179 265 207 159 162 137 158 243 299 280 302 308 308 309 308 306 306 308 308 308 306 303 301 298 296 295 292 288 286
175 172 169 164 164 168 163 156 146 140 199 217 227 177 259 322 315 318 297 307 303 303 307 306 305 306 307 307 306 305 303 301 299 296 296 294 292 289
174 180 183 166 173 169 161 154 162 153 178 272 271 360 346 324 314 302 300 291 283 296 304 306 305 308 309 309 307 302 302 299 298 297 297 295 294 292
181 179 182 170 172 165 169 176 179 181 155 193 215 206 219 223 248 258 263 267 280 293 302 303 307 310 311 310 304 304 303 301 298 296 294 293 292 290
181 182 179 171 175 169 172 183 184 185 190 180 207 215 228 240 245 237 237 241 249 276 287 294 299 303 302 302 300 303 300 297 296 294 293 291 290 289
179 183 177 180 178 171 181 188 182 191 194 196 212 231 221 229 228 276 290 281 295 287 282 287 291 296 298 295 295 295 293 292 292 292 291 289 289 288
180 180 183 182 180 177 173 180 183 193 194 197 214 216 238 248 313 294 309 311 300 264 281 293 298 292 288 289 287 289 288 287 286 286 284 282 282 282
179 181 176 172 186 190 194 192 190 185 191 182 201 218 258 262 299 312 305 319 338 219 312 305 303 294 289 286 290 291 289 289 288 286 281 276 276 276
178 174 173 181 177 186 199 198 203 208 203 188 183 195 243 244 274 289 290 298 289 307 312 299 301 287 287 288 290 290 291 287 284 281 278 276 274 272
183 177 176 173 178 178 184 205 208 212 225 236 160 218 235 250 238 256 295 303 289 284 286 285 317 292 293 289 290 290 292 291 290 287 281 277 275 273
176 177 176 175 179 182 178 196 200 210 223 222 222 234 260 286 285 359 277 295 296 306 288 279 302 300 294 283 273 280 290 290 294 296 288 280 276 273
168 170 177 170 180 187 177 185 203 209 203 190 176 267 267 279 287 277 183 213 275 322 115 301 306 324 308 280 288 289 285 281 283 283 282 283 282 273
171 170 178 177 179 192 191 188 203 196 209 160 144 197 251 261 265 263 255 248 252 250 273 293 292 296 271 297 287 287 293 287 280 275 274 279 280 272
173 173 174 179 183 191 196 191 208 188 134 123 149 262 265 261 269 274 278 268 255 263 279 274 275 279 282 283 286 295 287 283 281 279 275 270 268 270
161 168 170 180 186 190 192 198 161 150 153 157 188 223 244 270 292 296 285 280 272 270 271 267 267 277 268 275 283 285 295 291 280 273 270 268 270 272
165 169 177 179 167 146 145 171 156 175 184 173 196 223 269 280 277 280 289 296 291 285 273 273 270 272 277 273 282 287 287 280 283 275 274 267 261 260
147 156 170 159 157 152 149 167 169 177 176 182 204 236 281 294 285 282 291 289 282 294 293 288 276 275 275 279 284 277 284 282 278 281 275 271 261 259
152 162 169 167 165 153 161 173 175 168 154 169 195 235 266 291 293 299 293 279 284 284 292 291 298 295 287 271 257 278 276 279 282 277 272 272 272 258
169 162 170 169 162 158 160 163 162 147 147 163 213 249 278 294 298 289 285 290 284 289 281 289 296 296 296 292 295 272 287 286 286 279 272 265 272 270
166 162 163 161 161 154 148 155 148 141 151 160 223 276 295 289 288 285 287 287 292 289 292 292 285 284 285 290 295 294 282 284 283 281 279 269 267 266
155 156 147 151 148 148 145 143 139 144 146 158 221 247 282 271 273 275 282 290 286 289 296 294 290 289 287 288 284 285 287 284 285 285 286 275 272 269
142 133 130 134 138 146 143 141 138 155 158 169 199 202 248 251 265 278 283 290 287 294 291 292 297 299 296 289 289 294 297 296 290 284 278 273 269 263
137 132 134 130 138 146 141 148 160 160 153 176 185 218 241 258 263 271 277 277 296 298 296 297 302 302 293 295 294 298 298 304 307 302 284 279 272 265